Location: Volkssternwarte_EN
(51.3230°N, 7.4010°E)
Time: 01:43:28
(UTC+02:00)

Envisat - Visible Passes

Search period start: 22 September 2021 00:00
Search period end: 02 October 2021 00:00
Orbit: 764 x 766 km, 98.2° (Epoch: 21 September)

Date Brightness Start Highest point End Pass type
(mag) Time Alt. Az. Time Alt. Az. Time Alt. Az.
22 Sep 4.7 06:09:17 10° NNE 06:13:59 36° E 06:18:40 10° SSE visible
23 Sep 5.8 05:33:11 10° NE 05:36:47 19° E 05:40:21 10° SE visible
24 Sep 3.7 06:34:25 10° NNE 06:39:28 59° E 06:44:28 10° S visible
25 Sep 5.1 05:57:55 10° NNE 06:02:23 30° E 06:06:50 10° SSE visible
26 Sep 5.9 05:22:07 10° NE 05:25:07 15° E 05:28:05 10° ESE visible
27 Sep 4.2 06:22:58 10° NNE 06:27:54 48° E 06:32:48 10° S visible
28 Sep 5.4 05:46:37 10° NE 05:50:47 25° E 05:54:54 10° SE visible
29 Sep 6.1 05:11:19 10° ENE 05:13:26 12° E 05:15:31 10° ESE visible
29 Sep 3.3 06:48:12 10° NNE 06:53:20 77° ESE 06:58:25 10° S visible
30 Sep 4.6 06:11:33 10° NNE 06:16:20 39° E 06:21:04 10° SSE visible
01 Oct 5.7 05:35:23 10° NE 05:39:08 20° E 05:42:51 10° SE visible
